Mactan-Cebu International Airport

Airport
ICAO code: 
RPVM
IATA Code: 
CEB
Summary
ICAO Region: 
APAC
Territory: 
Location: 
Lapu-Lapu City, Central Visayas
Serving: 
Cebu City
Elevation: 
31 ft
Coordinates: 
Aerial View: 
10° 18' 31.716" N, 123° 58' 52.32" E
Metar
Observation
RPVM 281600Z 22006KT 8000 -RA SCT020 OVC090 25/23 Q1008 RMK A2977
Station
Masbate
Date/Time
2022-06-28 16:00:00
Wind direction
220°
Wind speed
06 kts
Lowest cloud amount
scattered clouds
Temperature
25°C
Dew point
23°C
Humidity
88%
QNH
1008 hPa
Weather condition
n/a

Mactan-Cebu International Airport is a major international airport in the Visayas region of the Philippines. It is located in Lapu-Lapu City, Mactan Island, Metro Cebu and is the country's second primary gateway.

Climatology

Tropical Rainforest climate (Köppen climate classification Af)

Runways

Designator Length Width Surface Rops
4/22 3300 45 ASP Yes/Yes
Airport map: 
Aerial View: 

SKYbrary Partners:

Safety knowledge contributed by: